Location: Newark
(9.4667°S, 159.8167°E)
Time: 20:03:47
(UTC+00:00)

ISS - Visible Passes

Search period start: 17 October 2019 00:00
Search period end: 27 October 2019 00:00
Orbit: 411 x 421 km, 51.6° (Epoch: 17 October)

Date Brightness Start Highest point End Pass type
(mag) Time Alt. Az. Time Alt. Az. Time Alt. Az.
17 Oct -3.7 07:50:48 10° NW 07:54:06 81° WSW 07:57:26 10° SE visible
17 Oct -0.6 17:47:04 10° S 17:49:14 16° SE 17:51:22 10° E visible
19 Oct -0.7 07:51:30 10° W 07:53:40 16° SW 07:55:51 10° S visible
19 Oct -3.6 17:46:06 15° SSW 17:48:47 76° SE 17:52:08 10° NE visible
20 Oct -1.1 17:01:58 19° E 17:01:58 19° E 17:03:15 10° ENE visible
21 Oct -1.2 17:50:42 10° N 17:50:42 10° N 17:50:47 10° N visible
